Wind_Speed
49 50 51 52 52 52 52 52 52 54 58 61 64 65 65 65 64 63 62 59 57 55 53 52 50 49 47 44 41 37 34 32 30 29 27 26 25 23 21 21 21 21 22
58 59 61 61 60 58 56 55 55 55 55 58 61 65 68 70 70 68 67 65 64 62 60 57 55 53 51 47 44 41 37 34 32 30 29 27 25 23 22 21 21 21 22
63 65 66 65 64 62 59 56 55 54 54 56 58 62 65 69 73 74 73 71 69 67 65 63 60 57 55 52 48 44 40 37 34 32 30 28 26 24 22 21 20 20 21
66 67 67 67 66 64 60 57 54 53 52 53 54 56 59 63 67 72 76 76 74 72 70 68 64 61 58 56 52 48 44 40 35 33 31 29 27 24 22 21 20 19 20
66 66 66 66 65 62 59 55 53 52 51 51 51 52 53 55 58 62 68 74 77 76 74 71 69 65 62 59 55 52 48 43 38 34 32 30 27 26 24 22 20 19 20
65 64 63 62 62 60 56 52 49 48 48 49 49 50 50 49 50 51 55 61 70 75 76 75 73 69 65 61 58 54 50 45 40 37 34 31 28 26 24 22 20 19 20
62 62 62 61 58 55 51 48 45 43 44 46 46 47 47 46 45 45 46 48 54 64 72 76 76 72 67 63 59 55 52 47 43 39 35 32 30 27 25 22 20 20 20
60 61 61 58 53 48 44 41 40 39 40 42 45 45 46 44 42 41 40 41 42 47 57 67 74 74 69 64 59 56 53 48 44 41 37 34 31 28 25 22 20 20 20
60 60 59 54 48 42 38 35 34 35 36 39 43 44 44 42 40 38 36 35 35 37 42 52 62 70 69 65 60 56 52 49 46 42 39 36 32 28 25 22 19 18 19
58 59 55 50 43 37 32 28 28 30 32 35 39 42 43 41 40 37 34 32 30 31 34 40 49 59 64 64 60 56 52 49 46 43 39 36 32 29 25 22 19 19 19
57 57 52 45 38 32 26 22 22 25 28 31 35 38 41 40 39 37 34 31 29 28 29 32 38 48 56 60 59 55 52 50 46 43 40 37 33 29 26 23 21 20 20
55 54 50 43 35 28 22 18 16 19 24 28 31 34 37 38 38 37 34 31 29 27 26 27 32 40 50 56 56 55 52 49 46 43 40 37 34 30 26 24 22 21 21
54 52 48 42 34 26 20 14 11 14 19 24 28 31 33 35 36 35 33 30 28 26 24 24 27 36 46 53 54 53 52 48 45 42 39 37 35 31 28 25 23 22 22
53 51 47 41 34 27 20 13 8 7 13 19 24 27 29 32 33 33 32 29 26 25 23 22 24 33 43 50 53 52 50 47 45 41 39 38 36 32 29 26 24 23 22
52 50 46 41 35 28 21 14 8 4 6 13 19 24 26 28 29 30 29 28 26 24 23 23 24 31 42 49 51 50 49 47 45 43 41 38 36 33 30 27 25 23 22
50 49 45 41 36 30 22 15 9 4 2 8 15 20 23 25 26 26 26 25 24 23 22 23 25 31 42 48 50 50 48 46 44 42 41 39 37 34 30 28 26 24 23
48 47 44 40 36 31 25 18 12 7 2 5 11 17 20 23 24 24 24 23 22 21 21 22 25 32 43 49 50 51 47 44 42 40 40 39 38 35 32 29 26 25 23
46 45 43 40 36 31 26 20 15 10 5 4 8 14 17 20 22 22 22 21 21 20 20 21 25 33 43 51 50 51 48 44 42 41 40 39 38 36 34 31 28 26 25
44 43 41 39 36 31 27 21 16 12 7 4 6 11 15 18 20 21 21 20 19 18 19 20 23 32 42 48 50 50 48 45 43 42 40 38 37 36 34 32 29 27 26
42 40 39 38 35 32 27 23 17 13 9 5 5 9 13 16 18 20 20 20 18 16 16 17 20 28 35 44 48 50 49 46 44 42 40 38 37 35 34 32 30 28 27
40 39 38 36 35 32 28 24 19 14 10 6 5 8 11 14 17 19 19 19 17 16 15 15 17 23 30 41 45 48 46 45 42 40 39 37 35 34 33 31 30 29 28
36 36 36 35 34 32 29 26 22 17 12 8 6 7 10 13 16 18 18 17 17 16 14 14 16 21 27 34 40 44 44 43 40 38 36 35 34 33 32 31 30 29 28
33 33 34 34 33 31 30 27 24 20 15 12 8 7 9 12 14 16 16 17 17 16 16 16 18 22 26 32 38 40 39 38 37 36 34 32 32 31 30 29 29 28 28
30 30 31 32 32 30 28 27 26 23 19 16 13 11 10 11 13 14 15 15 16 16 17 19 23 26 29 31 34 36 35 34 34 33 32 31 30 30 29 28 28 27 27
27 28 28 29 30 29 27 26 26 25 23 20 19 17 15 14 13 14 15 16 18 20 21 23 26 28 30 31 32 32 31 32 32 30 29 29 28 28 27 26 25 24 24
24 25 26 26 26 27 26 25 25 25 25 23 22 21 19 18 17 18 18 19 21 22 25 27 29 29 29 31 31 30 29 29 29 27 26 26 25 25 23 22 22 21 21
Wind_Direction
310 308 304 300 296 292 286 279 272 266 260 254 251 248 245 243 241 240 239 239 238 238 238 239 239 240 240 239 239 239 241 245 251 256 259 260 263 267 274 279 278 269 257
312 309 306 302 298 294 288 281 275 268 263 257 253 249 246 243 241 239 238 237 236 237 237 238 239 239 239 239 239 239 240 242 247 253 256 258 259 262 270 277 276 268 256
311 309 305 302 299 295 288 280 273 268 263 258 254 250 247 244 242 239 237 236 235 235 235 237 237 238 239 239 239 239 239 240 244 249 253 254 255 259 265 273 275 267 255
310 308 305 303 300 295 289 281 272 265 260 255 252 249 247 245 243 241 238 236 235 233 233 234 235 236 237 238 238 238 238 239 241 245 248 250 251 254 260 267 271 267 255
311 309 306 304 301 296 290 282 273 264 257 251 248 246 244 244 244 243 241 238 236 234 233 232 233 233 234 235 236 236 237 238 239 242 244 247 248 250 255 262 266 265 256
313 312 309 306 302 297 291 282 273 263 255 249 245 242 240 240 240 242 242 241 238 236 234 233 233 232 232 232 232 233 234 235 237 238 240 243 244 246 250 256 261 262 254
317 316 313 309 303 297 290 282 273 262 254 247 241 238 235 235 237 238 240 240 240 239 236 234 232 232 230 230 229 230 232 232 233 235 237 238 240 242 245 250 255 257 251
321 321 318 314 307 299 290 282 271 260 252 243 236 234 231 231 233 234 237 239 241 240 238 236 233 231 229 228 226 226 228 229 230 231 232 234 235 238 241 244 249 251 249
326 325 323 318 312 304 294 281 270 257 247 239 231 230 229 227 229 231 234 237 241 241 239 236 233 230 228 226 224 224 224 224 225 226 228 229 231 233 235 238 243 245 243
331 331 328 324 319 311 300 285 269 254 243 236 229 228 225 224 225 228 232 234 236 238 238 234 231 228 226 223 221 220 219 219 220 221 223 223 225 227 228 230 234 237 237
337 337 336 332 327 321 308 290 270 250 240 234 228 226 224 222 222 224 227 229 231 232 234 232 227 222 221 219 217 216 215 215 216 217 218 219 219 221 222 223 227 233 234
344 344 344 342 337 332 320 301 276 249 236 227 223 223 221 220 220 222 223 225 226 227 229 229 225 217 214 213 212 212 212 212 213 214 215 215 215 216 217 218 222 226 228
350 350 351 350 347 344 338 323 289 250 231 223 220 221 218 216 217 218 220 223 224 225 228 228 223 213 208 207 207 208 208 210 211 211 211 210 211 212 213 214 217 220 223
356 356 357 358 358 355 352 345 321 262 232 224 219 216 213 212 212 215 218 220 220 222 226 226 219 209 203 201 201 203 204 206 208 208 207 206 207 208 209 209 211 214 220
360 1 3 4 5 4 3 0 352 307 234 216 210 207 206 206 208 210 212 213 215 218 221 221 215 206 198 194 194 197 200 203 205 205 204 204 204 204 205 206 208 212 217
2 4 5 7 10 10 11 12 12 5 211 197 198 200 202 203 203 204 207 209 211 215 216 214 210 201 193 189 189 192 196 200 202 204 204 203 202 203 204 204 205 208 211
3 6 8 10 12 15 19 23 26 28 69 171 185 190 193 195 196 199 200 202 205 209 209 207 203 196 190 186 186 190 193 196 199 201 202 202 201 202 204 204 204 206 208
5 7 10 13 15 19 23 27 32 39 58 124 171 181 185 188 191 192 194 196 199 202 204 202 198 193 188 183 183 186 187 191 196 200 200 201 202 202 204 204 203 204 206
6 9 11 14 17 20 24 27 32 40 54 94 152 171 178 183 186 187 188 190 191 194 196 197 198 193 188 185 182 181 183 188 193 196 198 200 201 201 202 203 203 205 206
9 11 13 16 18 21 24 27 31 38 51 78 139 168 177 181 183 185 187 187 188 188 188 193 195 191 191 187 183 181 182 187 191 195 197 198 199 201 202 203 205 207 209
9 12 14 17 19 22 25 28 31 35 45 68 118 157 171 179 183 186 188 189 189 188 186 187 190 189 188 185 183 180 182 187 191 194 197 198 199 200 202 204 207 208 211
9 13 15 18 20 23 27 31 33 36 45 61 96 144 167 175 181 185 189 190 189 187 186 183 186 185 182 184 182 181 182 185 187 190 193 196 198 200 203 206 208 210 213
7 13 17 19 21 25 29 33 36 40 47 59 86 121 151 168 174 179 184 187 189 189 186 180 178 180 177 177 178 179 180 183 185 189 192 195 198 201 204 207 209 212 214
6 12 16 20 22 25 30 34 39 44 50 59 73 95 118 143 161 169 174 177 178 178 173 167 166 170 172 170 173 176 179 182 185 188 191 196 200 203 207 210 212 214 218
6 11 16 21 25 28 32 36 40 46 53 62 73 86 99 113 132 148 157 160 159 158 157 156 158 162 166 167 171 174 179 183 186 189 194 198 202 205 209 212 215 218 221
6 12 16 21 26 30 33 37 41 47 54 63 74 84 93 102 113 123 132 142 146 146 147 149 152 156 161 167 171 175 179 183 187 192 198 201 204 207 211 214 217 220 225
Height
5695 5691 5687 5683 5679 5675 5673 5671 5670 5669 5670 5672 5675 5679 5683 5688 5693 5699 5704 5710 5715 5720 5725 5730 5735 5739 5744 5748 5753 5758 5761 5764 5766 5767 5769 5770 5771 5772 5772 5772 5772 5772 5773
5676 5670 5664 5659 5655 5651 5648 5646 5645 5645 5646 5648 5651 5655 5659 5664 5670 5677 5684 5690 5697 5704 5709 5715 5721 5726 5731 5736 5741 5746 5751 5755 5757 5759 5761 5763 5764 5765 5765 5765 5765 5766 5767
5657 5649 5642 5635 5630 5626 5623 5621 5620 5620 5621 5624 5627 5631 5635 5640 5646 5653 5661 5668 5676 5684 5691 5698 5705 5711 5717 5723 5729 5734 5740 5744 5748 5751 5752 5755 5757 5758 5758 5759 5759 5759 5760
5639 5629 5620 5611 5604 5600 5597 5596 5595 5596 5598 5600 5604 5608 5612 5617 5622 5629 5637 5645 5654 5663 5671 5679 5687 5695 5702 5709 5716 5722 5728 5734 5738 5742 5744 5747 5749 5750 5751 5752 5752 5753 5754
5622 5610 5599 5589 5580 5574 5571 5570 5570 5572 5574 5578 5582 5587 5592 5597 5602 5607 5614 5622 5631 5641 5650 5659 5669 5677 5686 5694 5702 5709 5716 5722 5728 5732 5735 5739 5741 5743 5745 5745 5746 5746 5747
5604 5592 5579 5568 5558 5551 5546 5545 5546 5549 5552 5556 5562 5568 5573 5579 5584 5590 5595 5602 5610 5619 5629 5639 5650 5660 5669 5679 5687 5695 5703 5711 5717 5722 5726 5730 5733 5736 5737 5739 5739 5740 5741
5587 5574 5561 5548 5537 5529 5524 5522 5524 5527 5531 5537 5543 5550 5557 5563 5569 5574 5580 5585 5591 5599 5609 5619 5630 5642 5652 5662 5672 5681 5690 5699 5706 5712 5717 5721 5725 5728 5730 5732 5733 5734 5735
5572 5557 5542 5529 5517 5509 5505 5503 5504 5507 5512 5518 5526 5534 5541 5549 5555 5561 5566 5571 5577 5582 5590 5599 5611 5623 5635 5646 5657 5667 5677 5687 5695 5702 5708 5712 5717 5720 5723 5725 5726 5728 5729
5558 5543 5526 5511 5500 5493 5488 5486 5487 5490 5496 5502 5511 5519 5527 5536 5543 5549 5554 5560 5565 5569 5574 5582 5592 5605 5619 5632 5644 5655 5665 5675 5684 5692 5698 5703 5708 5712 5715 5718 5720 5722 5724
5547 5530 5513 5498 5487 5480 5475 5473 5473 5477 5482 5489 5497 5506 5515 5524 5531 5538 5544 5549 5555 5559 5563 5569 5577 5589 5602 5617 5630 5642 5654 5664 5673 5681 5688 5694 5700 5704 5708 5711 5714 5717 5719
5537 5520 5503 5489 5479 5471 5466 5464 5464 5467 5472 5478 5486 5495 5504 5513 5521 5528 5534 5540 5546 5550 5554 5559 5565 5574 5588 5604 5618 5631 5642 5653 5662 5671 5679 5686 5692 5697 5701 5705 5708 5711 5714
5530 5513 5497 5484 5473 5465 5460 5458 5457 5459 5464 5470 5477 5485 5494 5503 5511 5518 5525 5532 5537 5542 5547 5551 5556 5563 5576 5591 5606 5619 5632 5643 5653 5662 5670 5678 5684 5690 5694 5698 5701 5705 5709
5526 5510 5495 5482 5471 5463 5458 5455 5454 5455 5459 5464 5471 5478 5486 5495 5503 5510 5517 5524 5530 5535 5540 5544 5548 5555 5566 5580 5595 5609 5622 5633 5644 5653 5662 5670 5677 5683 5687 5691 5695 5700 5703
5524 5509 5495 5483 5472 5464 5459 5455 5454 5454 5457 5461 5466 5473 5480 5488 5496 5503 5510 5517 5523 5528 5533 5537 5541 5548 5558 5571 5586 5599 5612 5625 5635 5645 5654 5662 5669 5676 5681 5686 5690 5694 5698
5525 5511 5498 5486 5475 5467 5461 5457 5456 5455 5456 5459 5464 5470 5477 5484 5491 5498 5505 5511 5517 5523 5527 5532 5536 5542 5552 5564 5578 5591 5604 5616 5627 5637 5647 5655 5662 5669 5675 5679 5684 5688 5692
5528 5515 5502 5491 5480 5472 5465 5461 5459 5458 5458 5460 5464 5469 5475 5482 5488 5495 5501 5507 5513 5518 5523 5527 5532 5537 5547 5558 5571 5584 5597 5609 5620 5630 5640 5648 5656 5663 5669 5674 5678 5683 5687
5531 5519 5507 5496 5486 5478 5471 5466 5464 5462 5462 5463 5466 5470 5475 5480 5487 5493 5499 5505 5510 5515 5520 5524 5528 5534 5543 5554 5566 5579 5591 5603 5614 5624 5634 5642 5650 5657 5663 5668 5673 5677 5682
5534 5523 5512 5502 5493 5484 5477 5473 5469 5467 5467 5467 5469 5472 5476 5481 5487 5492 5498 5504 5509 5513 5518 5521 5526 5532 5540 5551 5562 5574 5586 5598 5609 5619 5628 5636 5644 5651 5657 5663 5668 5672 5677
5538 5528 5517 5508 5499 5491 5484 5479 5475 5473 5472 5472 5473 5475 5478 5482 5487 5493 5498 5503 5508 5512 5516 5520 5525 5531 5538 5547 5558 5570 5582 5594 5605 5614 5623 5632 5639 5646 5652 5658 5663 5667 5672
5543 5533 5523 5514 5505 5498 5491 5485 5481 5478 5477 5476 5477 5479 5481 5485 5489 5494 5498 5503 5508 5513 5517 5521 5525 5531 5538 5547 5557 5567 5579 5590 5601 5610 5620 5628 5635 5641 5647 5653 5658 5663 5667
5548 5538 5529 5520 5512 5504 5497 5491 5486 5483 5481 5480 5480 5481 5484 5487 5491 5495 5499 5504 5509 5513 5517 5521 5525 5530 5537 5546 5556 5567 5577 5588 5598 5608 5616 5624 5631 5637 5643 5649 5653 5658 5663
5553 5544 5535 5526 5518 5511 5504 5497 5492 5488 5485 5484 5484 5484 5486 5489 5492 5496 5501 5505 5510 5514 5518 5522 5526 5532 5539 5547 5557 5567 5578 5588 5597 5606 5614 5621 5628 5634 5640 5645 5650 5655 5659
5557 5549 5541 5533 5525 5518 5511 5504 5499 5494 5490 5488 5487 5487 5489 5491 5494 5498 5502 5506 5510 5514 5519 5523 5528 5534 5541 5550 5559 5569 5579 5588 5597 5605 5613 5620 5626 5632 5637 5642 5646 5651 5655
5561 5554 5546 5539 5532 5525 5518 5512 5506 5501 5497 5494 5492 5492 5492 5494 5496 5500 5503 5507 5511 5515 5520 5525 5531 5538 5546 5554 5563 5571 5580 5588 5597 5604 5611 5618 5623 5629 5634 5638 5643 5647 5651
5565 5558 5551 5545 5539 5532 5526 5521 5515 5510 5505 5502 5499 5498 5498 5499 5500 5503 5506 5510 5514 5518 5523 5529 5536 5543 5551 5559 5567 5575 5583 5590 5598 5604 5610 5616 5621 5626 5631 5636 5640 5644 5648
5568 5562 5556 5550 5545 5539 5534 5529 5524 5520 5515 5512 5509 5507 5506 5506 5507 5509 5512 5515 5519 5523 5529 5535 5541 5549 5556 5564 5571 5579 5586 5592 5599 5604 5610 5615 5620 5625 5629 5633 5637 5641 5644